GSAT0218 (GALILEO 22)

Last updated on Sun Apr 12 2026 00:02:39 GMT+0000 (Coordinated Universal Time)

1 43058U 17079D 26101.29069295 .00000002 00000+0 00000+0 0 9996 2 43058 55.0936 223.3417 0002696 281.7306 78.2153 1.70474745 51878
UTC large
Height (km)
Speed (km/s)
/
Latitude / Longitude
Inclination (degrees)
Orbital Period (minutes)
Azimuth
Elevation
Range (km)
Doppler Factor

Next 0 passes for location: London (51.5072 / 0.1276)

Sorry there are no passes over London.
GSAT0218 (GALILEO 22)